DW4699 Weather Reports


time (UTC)temp
F
wind
direction
speed
knots
gust
knots
rain 1hr
in
rain 24hr
in
rain mn
in
humidity
%
barometer
mb
20190323222340 51 209 0.0 0.0 0.00 0.00 0.00 29 1021.0
20190323221833 51 259 0.0 0.0 0.00 0.00 0.00 28 1020.9
20190323221325 51 293 0.0 0.0 0.00 0.00 0.00 28 1020.7
20190323220839 51 234 0.0 0.0 0.00 0.00 0.00 29 1020.7
20190323220336 51 302 0.0 0.0 0.00 0.00 0.00 29 1020.7
20190323215828 51 357 0.0 0.0 0.00 0.00 0.00 29 1020.6
20190323215342 51 332 0.0 0.0 0.00 0.00 0.00 28 1020.5
20190323214834 51 28 0.0 0.0 0.00 0.00 0.00 28 1020.5
20190323214330 51 342 0.0 0.0 0.00 0.00 0.00 30 1020.6
20190323213842 52 230 0.0 0.0 0.00 0.00 0.00 29 1020.2
20190323213335 52 216 0.0 0.0 0.00 0.00 0.00 30 1020.1
20190323212827 52 355 0.0 0.0 0.00 0.00 0.00 31 1020.1
20190323212328 52 221 0.0 0.0 0.00 0.00 0.00 29 1020.1
20190323211841 52 324 0.0 0.0 0.00 0.00 0.00 32 1020.0
20190323211334 52 223 0.0 0.0 0.00 0.00 0.00 29 1019.9
20190323210830 52 280 0.0 0.0 0.00 0.00 0.00 30 1019.9
20190323210322 51 360 0.0 0.0 0.00 0.00 0.00 29 1019.9
20190323205836 51 228 0.0 0.0 0.00 0.00 0.00 29 1019.9
20190323205329 51 246 0.0 0.0 0.00 0.00 0.00 29 1019.8
20190323204825 51 236 0.0 0.0 0.00 0.00 0.00 31 1019.8
20190323204339 51 319 0.0 0.0 0.00 0.00 0.00 30 1019.9
20190323203832 51 224 0.0 0.0 0.00 0.00 0.00 29 1019.8
20190323203325 51 244 0.0 0.0 0.00 0.00 0.00 30 1019.8
20190323202838 51 237 0.0 0.0 0.00 0.00 0.00 30 1019.7
20190323202334 51 280 0.0 0.0 0.00 0.00 0.00 29 1019.7
20190323201826 51 349 0.0 0.0 0.00 0.00 0.00 30 1019.8
20190323201340 51 231 0.0 0.0 0.00 0.00 0.00 31 1019.8
20190323200837 51 230 0.0 0.0 0.00 0.00 0.00 33 1019.9
20190323200329 51 234 0.0 0.0 0.00 0.00 0.00 33 1019.8
20190323195822 51 238 0.0 0.0 0.00 0.00 0.00 31 1019.9
20190323195336 51 232 0.0 0.0 0.00 0.00 0.00 33 1019.9
20190323194831 51 307 0.0 0.0 0.00 0.00 0.00 31 1019.9
20190323194327 51 291 0.0 0.0 0.00 0.00 0.00 31 1019.8
20190323193841 51 242 0.0 0.0 0.00 0.00 0.00 32 1019.8
20190323193334 50 222 0.0 0.0 0.00 0.00 0.00 33 1019.8
20190323192830 50 352 0.0 0.0 0.00 0.00 0.00 33 1019.8
20190323192324 50 19 0.0 0.0 0.00 0.00 0.00 32 1019.8
20190323191836 50 219 0.0 0.0 0.00 0.00 0.00 32 1019.7
20190323191329 50 59 0.0 0.0 0.00 0.00 0.00 32 1019.8
20190323190823 50 277 0.0 0.0 0.00 0.00 0.00 34 1019.8
20190323190335 50 221 0.0 0.0 0.00 0.00 0.00 34 1019.6
20190323185828 50 262 0.0 0.0 0.00 0.00 0.00 32 1019.8
20190323185326 49 338 0.0 0.0 0.00 0.00 0.00 36 1019.8
20190323184838 49 14 0.0 0.0 0.00 0.00 0.00 37 1019.8
20190323184331 49 234 0.0 0.0 0.00 0.00 0.00 36 1019.9
20190323183828 49 263 0.0 0.0 0.00 0.00 0.00 34 1019.9
20190323183340 49 209 0.0 0.0 0.00 0.00 0.00 35 1019.9
20190323182833 49 279 0.0 0.0 0.00 0.00 0.00 35 1020.0
20190323182327 49 215 0.0 0.0 0.00 0.00 0.00 36 1019.9
20190323181819 49 217 0.0 0.0 0.00 0.00 0.00 34 1019.9
20190323181339 49 251 0.0 0.0 0.00 0.00 0.00 36 1020.0
20190323180833 48 229 0.0 0.0 0.00 0.00 0.00 37 1019.8
20190323180328 48 255 0.0 0.0 0.00 0.00 0.00 35 1019.9
20190323175841 48 221 0.0 0.0 0.00 0.00 0.00 37 1019.8
20190323175335 47 217 0.0 0.0 0.00 0.00 0.00 36 1019.8
20190323174827 47 216 0.0 0.0 0.00 0.00 0.00 37 1019.9
20190323174340 47 228 0.0 0.0 0.00 0.00 0.00 35 1019.8
20190323173834 47 220 0.0 0.0 0.00 0.00 0.00 38 1019.8
20190323173330 46 211 0.0 0.0 0.00 0.00 0.00 37 1019.8
20190323172823 46 236 0.0 0.0 0.00 0.00 0.00 38 1019.8
20190323172337 46 248 0.0 0.0 0.00 0.00 0.00 38 1019.8
20190323171829 46 230 0.0 0.0 0.00 0.00 0.00 38 1019.7
20190323171325 46 13 0.0 0.0 0.00 0.00 0.00 40 1019.6
20190323170839 46 213 0.0 0.0 0.00 0.00 0.00 41 1019.5
20190323170331 45 219 0.0 0.0 0.00 0.00 0.00 42 1019.5
20190323165828 45 351 0.0 0.0 0.00 0.00 0.00 41 1019.6
20190323165342 45 223 0.0 0.0 0.00 0.00 0.00 45 1019.5
20190323164834 44 228 0.0 0.0 0.00 0.00 0.00 42 1019.6
20190323164327 44 205 0.0 0.0 0.00 0.00 0.00 42 1019.6
20190323163821 44 228 0.0 0.0 0.00 0.00 0.00 42 1019.6
20190323163336 43 244 0.0 0.0 0.00 0.00 0.00 43 1019.7
20190323162832 43 205 0.0 0.0 0.00 0.00 0.00 41 1019.5
20190323162326 43 9 0.0 0.0 0.00 0.00 0.00 41 1019.6
20190323161822 43 223 0.0 0.0 0.00 0.00 0.00 43 1019.5
20190323161335 42 226 0.0 0.0 0.00 0.00 0.00 42 1019.4
20190323160828 42 325 0.0 0.0 0.00 0.00 0.00 44 1019.4
20190323160341 42 238 0.0 0.0 0.00 0.00 0.00 45 1019.3
20190323155834 42 196 0.0 0.0 0.00 0.00 0.00 46 1019.3
20190323155327 41 223 0.0 0.0 0.00 0.00 0.00 47 1019.3
20190323154823 41 224 0.0 0.0 0.00 0.00 0.00 46 1019.3
20190323154320 41 232 0.0 0.0 0.00 0.00 0.00 48 1019.3
20190323153836 41 221 0.0 0.0 0.00 0.00 0.00 48 1019.1
20190323153329 40 227 0.0 0.0 0.00 0.00 0.00 48 1019.2
20190323152822 40 307 0.0 0.0 0.00 0.00 0.00 50 1019.1
20190323152335 40 249 0.0 0.0 0.00 0.00 0.00 50 1019.1
20190323151828 39 217 0.0 0.0 0.00 0.00 0.00 49 1019.0
20190323151321 39 221 0.0 0.0 0.00 0.00 0.00 48 1018.9
20190323150837 40 221 0.0 0.0 0.00 0.00 0.00 48 1019.0
20190323150334 39 207 0.0 0.0 0.00 0.00 0.00 49 1018.9
20190323145830 39 251 0.0 0.0 0.00 0.00 0.00 50 1018.8
20190323145323 39 211 0.0 0.0 0.00 0.00 0.00 50 1018.8
20190323144836 39 282 0.0 0.0 0.00 0.00 0.00 51 1018.7
20190323144329 39 242 0.0 0.0 0.00 0.00 0.00 51 1018.6
20190323143822 39 214 0.0 0.0 0.00 0.00 0.00 51 1018.4
20190323143338 38 248 0.0 0.0 0.00 0.00 0.00 51 1018.3
20190323142834 38 28 0.0 0.0 0.00 0.00 0.00 51 1018.4
20190323142331 38 357 0.0 0.0 0.00 0.00 0.00 51 1018.2
20190323141824 37 223 0.0 0.0 0.00 0.00 0.00 52 1018.2
20190323141337 37 314 0.0 0.0 0.00 0.00 0.00 53 1018.1
20190323140830 37 221 0.0 0.0 0.00 0.00 0.00 54 1017.9
20190323140323 37 340 0.0 0.0 0.00 0.00 0.00 53 1017.8
20190323135836 37 7 0.0 0.0 0.00 0.00 0.00 54 1017.8
20190323135329 37 346 0.0 0.0 0.00 0.00 0.00 57 1017.7
20190323134826 36 229 0.0 0.0 0.00 0.00 0.00 55 1017.6
20190323134339 36 206 0.0 0.0 0.00 0.00 0.00 56 1017.4
20190323133832 36 323 0.0 0.0 0.00 0.00 0.00 56 1017.4
20190323133325 36 227 0.0 0.0 0.00 0.00 0.00 58 1017.2
20190323132841 36 228 0.0 0.0 0.00 0.00 0.00 58 1017.1
20190323132335 36 228 0.0 0.0 0.00 0.00 0.00 58 1017.0
20190323131827 36 199 0.0 0.0 0.00 0.00 0.00 59 1016.8
20190323131340 35 181 0.0 0.0 0.00 0.00 0.00 59 1016.7
20190323130837 35 221 0.0 0.0 0.00 0.00 0.00 59 1016.6
20190323130330 35 317 0.0 0.0 0.00 0.00 0.00 60 1016.6
20190323125823 35 334 0.0 0.0 0.00 0.00 0.00 60 1016.4
20190323125336 35 222 0.0 0.0 0.00 0.00 0.00 61 1016.4
20190323124829 35 195 0.0 0.0 0.00 0.00 0.00 61 1016.4
20190323124325 35 230 0.0 0.0 0.00 0.00 0.00 62 1016.3
20190323123838 35 270 0.0 0.0 0.00 0.00 0.00 63 1016.2
20190323123331 35 243 0.0 0.0 0.00 0.00 0.00 63 1016.0
20190323122828 34 340 0.0 0.0 0.00 0.00 0.00 63 1015.9
20190323122341 34 211 0.0 0.0 0.00 0.00 0.00 63 1015.7
20190323121834 34 313 0.0 0.0 0.00 0.00 0.00 64 1015.6
20190323121327 34 221 0.0 0.0 0.00 0.00 0.00 65 1015.5
20190323120820 34 215 0.0 0.0 0.00 0.00 0.00 65 1015.4
20190323120336 34 265 0.0 0.0 0.00 0.00 0.00 65 1015.2
20190323115832 34 226 0.0 0.0 0.00 0.00 0.00 66 1015.2
20190323115329 34 226 0.0 0.0 0.00 0.00 0.00 68 1015.2
20190323114822 34 223 0.0 0.0 0.00 0.00 0.00 68 1015.1
20190323114335 34 320 0.0 0.0 0.00 0.00 0.00 68 1015.0
20190323113828 34 253 0.0 0.0 0.00 0.00 0.00 68 1014.9
20190323113341 34 338 0.0 0.0 0.00 0.00 0.00 67 1014.7
20190323112834 34 309 0.0 0.0 0.00 0.00 0.00 67 1014.7
20190323112327 34 238 0.0 0.0 0.00 0.00 0.00 67 1014.7
20190323111840 34 352 0.0 0.0 0.00 0.00 0.00 66 1014.6
20190323111337 34 321 0.0 0.0 0.00 0.00 0.00 66 1014.5
20190323110830 34 234 0.0 0.0 0.00 0.00 0.00 67 1014.4
20190323110326 34 329 0.0 0.0 0.00 0.00 0.00 67 1014.2
20190323105839 34 348 0.0 0.0 0.00 0.00 0.00 66 1014.2
20190323105333 34 211 0.0 0.0 0.00 0.00 0.00 67 1014.2
20190323104825 34 229 0.0 0.0 0.00 0.00 0.00 67 1014.2
20190323104338 34 286 0.0 0.0 0.00 0.00 0.00 66 1014.1
20190323103831 34 203 0.0 0.0 0.00 0.00 0.00 66 1014.1
20190323103328 34 232 0.0 0.0 0.00 0.00 0.00 66 1013.9
20190323102841 34 299 0.0 0.0 0.00 0.00 0.00 66 1013.9
20190323102334 34 239 0.0 0.0 0.00 0.00 0.00 65 1013.8
20190323101827 35 350 0.0 0.0 0.00 0.00 0.00 66 1013.8
20190323101323 35 322 0.0 0.0 0.00 0.00 0.00 66 1013.8
20190323100836 35 218 0.0 0.0 0.00 0.00 0.00 65 1013.7
20190323100329 35 335 0.0 0.0 0.00 0.00 0.00 65 1013.5
20190323095826 35 221 0.0 0.0 0.00 0.00 0.00 65 1013.4
20190323095339 35 278 0.0 0.0 0.00 0.00 0.00 64 1013.3
20190323094832 35 356 0.0 0.0 0.00 0.00 0.00 64 1013.2
20190323094325 35 222 0.0 0.0 0.00 0.00 0.00 64 1013.1
20190323093838 35 348 0.0 0.0 0.00 0.00 0.00 63 1013.1
20190323093331 35 232 0.0 0.0 0.00 0.00 0.00 63 1013.0
20190323092827 35 271 0.0 0.0 0.00 0.00 0.00 63 1012.8
20190323092340 35 229 0.0 0.0 0.00 0.00 0.00 63 1012.8
20190323091837 36 319 0.0 0.0 0.00 0.00 0.00 63 1012.7
20190323091330 36 228 0.0 0.0 0.00 0.00 0.00 63 1012.5
20190323090823 36 230 0.0 0.0 0.00 0.00 0.00 64 1012.4
20190323090336 36 247 0.0 0.0 0.00 0.00 0.00 63 1012.4
20190323085829 36 13 0.0 0.0 0.00 0.00 0.00 63 1012.3
20190323085322 36 240 0.0 0.0 0.00 0.00 0.00 64 1012.3
20190323084835 36 226 0.0 0.0 0.00 0.00 0.00 63 1012.2
20190323084328 36 50 0.0 0.0 0.00 0.00 0.00 63 1011.8
20190323083828 36 215 0.0 0.0 0.00 0.00 0.00 63 1011.8
20190323083324 36 214 0.0 0.0 0.00 0.00 0.00 63 1011.7
20190323082837 36 199 0.0 0.0 0.00 0.00 0.00 63 1011.5
20190323082330 36 267 0.0 0.0 0.00 0.00 0.00 63 1011.5
20190323081823 36 251 0.0 0.0 0.00 0.00 0.00 64 1011.4
20190323081336 36 227 0.0 0.0 0.00 0.00 0.00 63 1011.3
20190323080829 36 355 0.0 0.0 0.00 0.00 0.00 63 1011.2
20190323080329 36 232 0.0 0.0 0.00 0.00 0.00 64 1011.3
20190323075822 36 221 0.0 0.0 0.00 0.00 0.00 64 1011.2
20190323075338 36 352 0.0 0.0 0.00 0.00 0.00 64 1011.2
20190323074831 36 221 0.0 0.0 0.00 0.00 0.00 64 1011.3
20190323074324 36 246 0.0 0.0 0.00 0.00 0.00 64 1011.1
20190323073837 36 307 0.0 0.0 0.00 0.00 0.00 65 1011.0
20190323073330 36 217 0.0 0.0 0.00 0.00 0.00 65 1011.1
20190323072823 36 193 0.0 0.0 0.00 0.00 0.00 64 1011.1
20190323072340 36 218 0.0 0.0 0.00 0.00 0.00 66 1011.1
20190323071833 37 271 0.0 0.0 0.00 0.00 0.00 65 1011.1
20190323071326 37 207 0.0 0.0 0.00 0.00 0.00 65 1011.0
20190323070822 37 232 0.0 0.0 0.00 0.00 0.00 65 1011.0
20190323070335 36 211 0.0 0.0 0.00 0.00 0.00 66 1011.0
20190323065828 36 217 0.0 0.0 0.00 0.00 0.00 66 1011.0
20190323065324 37 356 0.0 0.0 0.00 0.00 0.00 67 1011.0
20190323064837 37 227 0.0 0.0 0.00 0.00 0.00 66 1011.2
20190323064334 37 226 0.0 0.0 0.00 0.00 0.00 66 1011.3
20190323063827 37 343 0.0 0.0 0.00 0.00 0.00 66 1011.4
20190323063340 37 212 0.0 0.0 0.00 0.00 0.00 66 1011.2
20190323062833 37 283 0.0 0.0 0.00 0.00 0.00 65 1011.0
20190323062329 37 334 0.0 0.0 0.00 0.00 0.00 64 1010.8
20190323061822 37 220 0.0 0.0 0.00 0.00 0.00 64 1010.8
20190323061335 37 224 0.0 0.0 0.00 0.00 0.00 64 1010.5
20190323060832 37 244 0.0 0.0 0.00 0.00 0.00 64 1010.3
20190323060327 37 225 0.0 0.0 0.00 0.00 0.00 65 1010.3
20190323055840 37 228 0.0 0.0 0.00 0.00 0.00 65 1010.1
20190323055334 37 219 0.0 0.0 0.00 0.00 0.00 66 1010.2
20190323054826 38 213 0.0 0.0 0.00 0.00 0.00 65 1010.3
20190323054339 38 223 0.0 0.0 0.00 0.00 0.00 65 1010.3
20190323053832 38 340 0.0 0.0 0.00 0.00 0.00 65 1010.5
20190323053328 38 228 0.0 0.0 0.00 0.00 0.00 65 1010.3
20190323052824 38 227 0.0 0.0 0.00 0.00 0.00 66 1010.1
20190323052337 38 236 0.0 0.0 0.00 0.00 0.00 66 1010.2
20190323051830 38 228 0.0 0.0 0.00 0.00 0.00 67 1010.2
20190323051343 37 226 0.0 0.0 0.00 0.00 0.00 69 1010.3
20190323050833 37 219 0.0 0.0 0.00 0.00 0.00 71 1010.3
20190323050326 37 278 0.0 0.0 0.00 0.00 0.00 73 1010.4
20190323045839 37 354 0.0 0.0 0.00 0.00 0.00 72 1010.4
20190323045332 37 204 0.0 0.0 0.00 0.00 0.00 72 1010.3
20190323044829 37 354 0.0 0.0 0.00 0.00 0.00 72 1010.4
20190323044325 37 238 0.0 0.0 0.00 0.00 0.00 73 1010.3
20190323043838 38 215 0.0 0.0 0.00 0.00 0.00 72 1010.2
20190323043331 38 354 0.0 0.0 0.00 0.00 0.00 73 1010.2
20190323042824 38 241 0.0 0.0 0.00 0.00 0.00 73 1010.3
20190323042337 38 232 0.0 0.0 0.00 0.00 0.00 73 1010.2
20190323041830 38 218 0.0 0.0 0.00 0.00 0.00 74 1010.2
20190323041327 38 227 0.0 0.0 0.00 0.00 0.00 75 1010.3
20190323040820 38 214 0.0 0.0 0.00 0.00 0.00 76 1010.3
20190323040335 38 220 0.0 0.0 0.00 0.00 0.00 77 1010.4
20190323035829 38 220 0.0 0.0 0.00 0.00 0.00 76 1010.4
20190323035322 38 253 0.0 0.0 0.00 0.00 0.00 76 1010.3
20190323034835 38 15 0.0 0.0 0.00 0.00 0.00 74 1010.4
20190323034328 39 209 0.0 0.0 0.00 0.00 0.00 72 1010.4
20190323033821 39 213 0.0 0.0 0.00 0.00 0.00 68 1010.4
20190323033341 40 261 0.0 0.0 0.00 0.00 0.00 66 1010.2
20190323032834 40 232 0.0 0.0 0.00 0.00 0.00 66 1010.1
20190323032327 40 213 0.0 0.0 0.00 0.00 0.00 66 1010.1
20190323031823 40 244 0.0 0.0 0.00 0.00 0.00 65 1010.0
20190323031336 40 231 0.0 0.0 0.00 0.00 0.00 65 1009.9
20190323030829 40 214 0.0 0.0 0.00 0.00 0.00 65 1009.8
20190323030322 40 218 0.0 0.0 0.00 0.00 0.00 64 1009.7
20190323025835 40 229 0.0 0.0 0.00 0.00 0.00 64 1009.6
20190323025332 40 228 0.0 0.0 0.00 0.00 0.00 64 1009.7
20190323024825 40 211 0.0 0.0 0.00 0.00 0.00 64 1009.5
20190323024338 40 300 0.0 0.0 0.00 0.00 0.00 63 1009.4
20190323023831 40 5 0.0 0.0 0.00 0.00 0.00 62 1009.5
20190323023323 40 227 0.0 0.0 0.00 0.00 0.00 61 1009.3
20190323022837 40 220 0.0 0.0 0.00 0.00 0.00 61 1009.3
20190323022330 40 208 0.0 0.0 0.00 0.00 0.00 60 1009.3
20190323021827 40 316 0.0 0.0 0.00 0.00 0.00 61 1009.3
20190323021340 40 226 0.0 0.0 0.00 0.00 0.00 60 1009.2
20190323020833 40 332 0.0 0.0 0.00 0.00 0.00 60 1009.2
20190323020326 40 223 0.0 0.0 0.00 0.00 0.00 60 1008.9
20190323015839 40 327 0.0 0.0 0.00 0.00 0.00 59 1008.9
20190323015332 40 213 0.0 0.0 0.00 0.00 0.00 58 1008.8
20190323014824 40 245 0.0 0.0 0.00 0.00 0.00 59 1008.7
20190323014337 41 220 0.0 0.0 0.00 0.00 0.00 58 1008.5
20190323013835 40 236 0.0 0.0 0.00 0.00 0.00 57 1008.5
20190323013327 40 9 0.0 0.0 0.00 0.00 0.00 58 1008.6
20190323012840 40 217 0.0 0.0 0.00 0.00 0.00 58 1008.4
20190323012334 41 19 0.0 0.0 0.00 0.00 0.00 57 1008.3
20190323011830 41 215 0.0 0.0 0.00 0.00 0.00 56 1008.2
20190323011323 41 218 0.0 0.0 0.00 0.00 0.00 57 1008.3
20190323010836 41 254 0.0 0.0 0.00 0.00 0.00 57 1008.1
20190323010328 41 217 0.0 0.0 0.00 0.00 0.00 55 1008.0
20190323005825 41 205 0.0 0.0 0.00 0.00 0.00 56 1008.0
20190323005339 41 171 0.0 0.0 0.00 0.00 0.00 54 1007.8
20190323004831 41 211 0.0 0.0 0.00 0.00 0.00 56 1007.8
20190323004324 41 228 0.0 0.0 0.00 0.00 0.00 56 1007.7
20190323003837 41 220 0.0 0.0 0.00 0.00 0.00 56 1007.5
20190323003330 41 190 0.0 0.0 0.00 0.00 0.00 57 1007.4
20190323002825 42 354 0.0 0.0 0.00 0.00 0.00 56 1007.3
20190323002326 42 242 0.0 0.0 0.00 0.00 0.00 56 1007.1
20190323001821 42 228 0.0 0.0 0.00 0.00 0.00 56 1007.1
20190323001334 42 334 0.0 0.0 0.00 0.00 0.00 57 1006.9
20190323000828 42 354 0.0 0.0 0.00 0.00 0.00 57 1006.8
20190323000340 42 227 0.0 0.0 0.00 0.00 0.00 57 1006.6
20190322235833 42 234 0.0 0.0 0.00 0.00 0.00 58 1006.3
20190322235327 42 234 0.0 0.0 0.00 0.00 0.00 60 1006.3
20190322234822 42 322 0.0 0.0 0.00 0.00 0.00 63 1006.2
20190322234320 42 223 0.0 0.0 0.00 0.00 0.00 67 1006.1
20190322233836 42 221 0.0 0.0 0.00 0.00 0.00 66 1006.0
20190322233328 42 263 0.0 0.0 0.00 0.00 0.00 66 1005.9
20190322232821 42 221 0.0 0.0 0.00 0.00 0.00 67 1005.8
20190322232335 42 224 0.0 0.0 0.00 0.00 0.00 66 1005.8
20190322231827 43 253 0.0 0.0 0.00 0.00 0.00 67 1005.7
20190322231320 43 231 0.0 0.0 0.00 0.00 0.00 65 1005.8
20190322230821 43 228 0.0 0.0 0.00 0.00 0.00 65 1005.7
20190322230337 44 226 0.0 0.0 0.00 0.00 0.00 64 1005.6
20190322225832 44 7 0.0 0.0 0.00 0.00 0.00 63 1005.4
20190322225326 45 325 0.0 0.0 0.00 0.00 0.00 61 1005.2
20190322224839 45 352 0.0 0.0 0.00 0.00 0.00 59 1004.8
20190322224331 45 216 0.0 0.0 0.00 0.00 0.00 58 1004.7
20190322223825 45 277 0.0 0.0 0.00 0.00 0.00 58 1004.4
20190322223337 45 68 0.0 0.0 0.00 0.00 0.00 57 1004.2
20190322222834 45 353 0.0 0.0 0.00 0.00 0.00 58 1004.1